Regional Weather Roundup
Issued by NWS

Home | Current Version | Previous Version | Graphics & Text | Print | Product List | Glossary On
Versions: 1 2 3 4 5 6 7 8 9 10 11 12 13 14 15 16 17 18 19 20 21 22 23 24 25 26 27 28 29 30 31 32 33 34 35 36 37 38 39 40 41 42 43 44 45 46 47 48 49 50
000
ASUS43 KBIS 262010
RWRND

NORTH DAKOTA REGIONAL WEATHER ROUNDUP
NATIONAL WEATHER SERVICE BISMARCK ND
200 PM CST FRI DEC 26 2014

NOTE: "FAIR" INDICATES FEW OR NO CLOUDS BELOW 12,000 FEET WITH NO
SIGNIFICANT WEATHER AND/OR OBSTRUCTIONS TO VISIBILITY.


NDZ001>003-009>011-017-262100-
NORTHWEST NORTH DAKOTA

CITY           SKY/WX    TMP DP  RH WIND       PRES   REMARKS
WILLISTON      CLOUDY    18  12  77 W3        30.15F
MINOT          FAIR      13   5  70 N7        30.16F WCI   3
MINOT AFB      PTSUNNY    9   7  92 N10       30.16F WCI  -6
$$

NDZ018>021-031>035-040>046-262100-
SOUTHWEST NORTH DAKOTA

CITY           SKY/WX    TMP DP  RH WIND       PRES   REMARKS
BISMARCK       CLOUDY    18  11  74 N5        30.16F WCI  11
DICKINSON      PTSUNNY   23  13  65 NW6       30.07F WCI  16
GARRISON         N/A     17   9  70 NW9       30.15F WCI   6
HETTINGER ARPT MOSUNNY   23  12  62 NW10      30.09F WCI  12
$$

NDZ004>008-012>016-024-026-027-054-262100-
NORTHEAST NORTH DAKOTA

CITY           SKY/WX    TMP DP  RH WIND       PRES   REMARKS
GRAND FORKS    CLOUDY    17  10  74 NW14      30.18S WCI   3
GRND FRKS AFB  SUNNY     16  11  81 NW14      30.19S WCI   1
DEVILS LAKE    MOSUNNY    7   0  72 NW14      30.16F WCI -10
$$

NDZ022-023-025-028>030-036>039-047>053-262100-
SOUTHEAST NORTH DAKOTA

CITY           SKY/WX    TMP DP  RH WIND       PRES   REMARKS
FARGO          CLOUDY    25  17  72 N12       30.15S WCI  14
JAMESTOWN      CLOUDY    11   4  73 NW14      30.15F WCI  -5
$$




USA.gov is the U.S. government's official web portal to all federal, state and local government web resources and services.